#timestamp,LO_Frequency,Hit,StdDev 
1633993215.2,286047004.3,N
1633993235.9,286046999.8,N
1633993255.7,286047000.9,N
1633993275.6,286047000.6,N
1633993295.4,286047000.8,N
1633993315.2,286046998.7,N
1633993335.1,286046998.1,N
1633993336.0,286046998.1,N
1633993355.8,286046998.2,N
1633993375.7,286047000.9,N
1633993395.5,286047002.4,N
1633993415.3,286047003.7,N
1633993435.2,286047000.2,N
1633993455.0,286047001.8,N
1633993455.9,286047001.8,N
1633993475.8,286047001.6,N
1633993495.6,286047004.4,N
1633993515.4,286047003.9,N
1633993535.3,286047001.6,N
1633993555.1,286047004.3,N
1633993575.8,286047005.6,N
1633993595.7,286047004.0,N
1633993615.5,286047002.5,N
1633993635.4,286047001.1,N
1633993655.2,286046996.9,N
1633993675.0,286046998.8,N
1633993675.9,286046998.8,N
1633993695.8,286047000.5,N
1633993715.6,286047000.6,N
1633993735.4,286046999.7,N
1633993755.3,286047001.5,N
1633993775.1,286047002.0,N
1633993795.9,286047001.6,N
1633993815.7,286047005.6,N
1633993835.5,286047007.4,Y
1633993855.4,286047005.0,P
1633993875.2,286047006.8,P
1633993895.1,286047006.7,N
1633993896.0,286047006.7,Y
1633993915.8,286047000.2,P
1633993935.6,286047000.4,N
1633993955.5,286047000.7,N
1633993975.3,286046996.9,N
1633993995.1,286046996.5,N
1633994015.9,286046997.5,N
1633994035.7,286046999.6,N
1633994055.6,286046999.6,N
1633994075.4,286047000.6,N
1633994095.2,286047000.1,N
1633994115.1,286047002.3,N
1633994116.0,286047002.3,N
1633994135.8,286047002.4,N
1633994155.7,286046999.0,N
1633994175.5,286046997.0,N
1633994195.3,286046997.7,N
1633994215.2,286046999.6,N
1633994235.0,286046999.2,N
1633994235.9,286046999.2,N
1633994255.7,286046998.7,N
1633994275.6,286046998.1,N
1633994295.4,286046998.2,N
1633994315.3,286047001.0,N
1633994335.1,286047000.2,N
1633994336.0,286047000.2,N
1633994355.8,286047000.1,N
1633994375.7,286047001.4,N
1633994395.5,286046999.8,N
1633994415.3,286047002.1,N
1633994435.2,286047002.7,N
1633994455.0,286046996.6,N
1633994455.9,286046996.6,N
1633994475.8,286046996.3,N
1633994495.6,286046993.3,Y
1633994515.4,286046997.1,P
1633994535.3,286046998.9,N
1633994555.1,286046998.2,N
1633994575.9,286046998.2,N
1633994595.7,286046999.8,N
1633994615.5,286047002.8,Y
1633994635.4,286047003.8,P
1633994655.2,286047001.5,N
1633994675.0,286047001.5,N
1633994675.9,286047001.5,N
1633994695.8,286047001.4,N
1633994715.6,286047004.4,N
1633994735.5,286047003.1,N
1633994755.3,286047004.1,N
1633994775.2,286047004.4,N
1633994795.9,286047003.4,N
1633994815.7,286047003.9,N
1633994835.6,286047005.4,Y
1633994855.4,286047001.9,P
1633994875.3,286047003.1,P
1633994895.1,286047002.5,P
1633994896.0,286047002.5,Y
1633994915.8,286046999.2,P
1633994935.7,286046996.5,N
1633994955.5,286046998.7,N
1633994975.3,286046997.0,N
1633994995.2,286046997.3,N
1633995015.0,286046999.1,N
1633995015.9,286046999.1,N
1633995035.8,286046996.8,N
1633995055.6,286046996.9,N
1633995075.4,286046996.3,N
1633995095.3,286046993.8,Y
1633995115.1,286046996.9,P
1633995135.9,286047001.2,N
1633995155.5,286046999.7,N
1633995175.3,286046998.2,N
1633995195.2,286046998.2,N
1633995215.0,286046999.6,N
1633995215.9,286046999.6,N
1633995235.8,286046998.9,N
1633995255.6,286046998.2,N
1633995275.4,286046998.7,N
1633995295.3,286046997.0,N
1633995315.1,286046995.3,Y
1633995335.9,286046997.1,P
1633995355.7,286046998.9,N
1633995375.5,286046998.1,N
1633995395.4,286046998.9,N
1633995415.2,286046996.8,Y
1633995435.1,286046998.5,P
1633995436.0,286046998.5,P
1633995455.8,286047000.6,P
1633995475.6,286046998.5,N
1633995495.5,286046998.8,N
1633995515.3,286046998.2,N
1633995535.2,286046998.7,N
1633995555.9,286046998.2,N
1633995575.7,286046996.6,Y
1633995595.6,286047000.9,P
1633995615.4,286047000.9,N
1633995635.3,286046998.4,N
1633995655.1,286046999.4,N
1633995656.0,286046999.4,N
1633995675.8,286047000.8,N
1633995695.7,286046998.2,N
1633995715.5,286046996.5,Y
1633995735.4,286047001.1,P
1633995755.2,286047000.0,N
1633995775.0,286047001.4,N
1633995775.9,286047001.4,N
1633995795.8,286047001.7,N
1633995815.6,286047001.7,N
1633995835.4,286047001.5,N
1633995855.3,286047001.6,N
1633995875.1,286047001.8,N
1633995895.9,286047004.1,Y
1633995915.7,286047001.3,P
1633995935.5,286047000.5,P
1633995955.4,286047000.4,N
1633995975.2,286047001.2,N
1633995995.1,286046998.2,Y
1633995996.0,286046998.2,P
1633996015.8,286046998.4,N
1633996035.6,286047001.2,N
1633996055.5,286046999.1,N
1633996075.3,286046997.4,N
1633996095.2,286046997.8,N
1633996115.9,286046997.4,N
1633996135.7,286047002.7,N
1633996155.6,286047002.5,N
1633996175.4,286047001.0,N
1633996195.2,286046998.5,N
1633996215.1,286047003.9,N
1633996216.0,286047003.9,N
1633996235.8,286047004.2,N
1633996255.7,286047003.9,N
1633996275.5,286047000.1,N
1633996295.3,286047000.9,N
1633996315.2,286047000.7,N
1633996335.0,286046999.7,N
1633996335.9,286046999.7,N
1633996355.8,286047001.0,N
1633996375.6,286046998.1,N
1633996395.4,286047000.8,N
1633996415.3,286047004.3,N
1633996435.1,286047001.9,N
1633996455.9,286047001.7,N
1633996475.7,286047003.8,N
1633996495.5,286047002.7,N
1633996515.4,286047000.1,N
1633996535.2,286046998.7,N
1633996555.1,286047001.3,N
1633996556.0,286047001.3,N
1633996575.8,286047005.5,N
1633996595.6,286047004.1,N
1633996615.5,286047001.9,N
1633996635.3,286047002.8,N
1633996655.1,286047000.8,N
1633996675.9,286046998.6,N
1633996695.7,286047001.2,N
1633996715.6,286046999.4,N
1633996735.4,286046996.6,N
1633996755.2,286046998.9,N
1633996775.1,286047000.3,N
1633996776.0,286047000.3,N
1633996795.8,286047000.8,N
